Zurück zum Katalog

SL-14 DEB

AktivPO
NORAD 45273·DEBRIS·🇷🇺 Russia

Gestartet Aug 15, 1991 von Plesetsk Cosmodrome

Loading…

Nächste Überflüge (nächste 24 Stunden)

TLE

AktuellSource: Space-Track

Epoche: Sep 13, 2026, 17:12 UTC

1 45273U 91056K   26256.71687348  .00001277  00000-0  19697-2 0  9998
2 45273  82.5672 356.7126 0113668 257.7804 101.0587 13.48147848322851

Verfolge SL-14 DEB in Echtzeit mit AllMySat

Download on the App Store